www.pogodaiklimat.ru

Погода и климат >> Архив погоды >> Албания >> Влёра


ПОГОДА во Влёре

  • Прогноз погоды во Влёре
  • Монитор погоды во Влёре

АРХИВ ПОГОДЫ во Влёре

Время (UTC), дата Ветер
(напр.,м/с)
 
Видим.   Явления Облачность Т
(С)
Тd
(С)
f
(%)
Тe
(С)
Тes
(С)
Комфортность P
(гПа)
Po
(гПа)
Тmin
(С)
Tmax
(С)
R
(мм)
R24
(мм)
S
(см)
12 15.01 СВ 10 20 км ясно +9.0 -7.6 30 +5 +5 1010.7 1010.0
15 15.01 С 20 20 км ясно +8.2 -11.7 23 +2 +2 1012.7 1012.0
18 15.01 СВ 12 15 км ясно +5.4 -11.3 29 -0 -0 1016.1 1015.3 +9.4
21 15.01 СВ 6 12 км ясно +3.2 -11.1 34 -2 -2 1019.4 1018.7
06 16.01 СВ 2 20 км ясно +1.2 -10.0 43 -1 -1 1021.9 1021.2 -0.8
09 16.01 СВ 6 20 км ясно +4.0 -8.7 39 -1 +1 1023.2 1022.4
12 16.01 СВ 4 20 км 5/0
[Ci fib]
+10.6 -3.1 38 +9 +11 1023.0 1022.2
15 16.01 СЗ 6 20 км 4/0
[Ci fib]
+10.6 -1.5 43 +8 +8 1022.5 1021.8
18 16.01 штиль 0 12 км ясно +5.4 -1.1 63 +5 +5 1022.7 1021.9 +11.2
21 16.01 штиль 0 10 км ясно +3.0 -1.5 72 +2 +2 1023.4 1022.6
06 17.01 штиль 0 15 км ясно +2.0 -3.7 66 +1 +1 1021.4 1020.7 +1.0
09 17.01 штиль 0 20 км ясно +6.6 -1.8 55 +6 +11 1021.8 1021.1
12 17.01 ЮВ 6 20 км ясно +12.4 -1.9 37 +10 +12 1020.9 1020.2
15 17.01 СВ 6 20 км ясно +13.8 -1.4 35 +12 +12 1019.1 1018.3
18 17.01 ЮВ 6 12 км ясно +8.0 +0.3 58 +4 +4 1019.0 1018.2 +15.6
21 17.01 ЮВ 2 10 км ясно +6.2 +1.7 73 +4 +4 1019.4 1018.7
06 18.01 ЮВ 4 12 км слаб. дождь 10/10 1200 м
[Sc]
+9.6 +5.0 73 +7 +7 1015.8 1015.0 +5.0
09 18.01 ЮВ 2 15 км в посл. час дождь 10/10 1200 м
[Sc]
+9.6 +7.0 84 +8 +8 1016.4 1015.6
12 18.01 ЮЗ 6 12 км слаб. дождь 10/10 1000 м
[Sc]
+11.4 +6.5 72 +9 +9 1016.4 1015.6 3
15 18.01 СВ 6 12 км слаб. дождь {гроза} 10/10 1000 м
[Sc]
+9.6 +7.0 84 +6 +6 1016.0 1015.3
18 18.01 СВ 4 10 км в посл. час дождь {гроза} 10/10 1080 м
[Sc]
+9.4 +7.4 87 +6 +6 1015.6 1014.9 +11.6 18
21 18.01 СЗ 8 10 км в посл. час дождь {ливн. осадки} 10/10 1080 м
[Sc]
+8.6 +6.8 88 +4 +4 1015.5 1014.8
06 19.01 В 6 15 км {дождь} 8/8 1200 м
[Sc]
+9.0 +6.5 84 +5 +5 1014.1 1013.3 +7.6 11
09 19.01 СВ 4 20 км 6/6 1380 м
[Sc]
+12.0 +6.5 69 +10 +11 1015.2 1014.5
12 19.01 ЮВ 8 20 км 8/8 1380 м
[Sc]
+15.4 +5.4 51 +14 +14 1014.7 1014.0
15 19.01 ЮЗ 2 20 км в посл. час дождь 9/9 1300 м
[Sc]
+14.8 +6.1 56 +15 +15 1014.2 1013.5
18 19.01 штиль 0 10 км {дождь} 9/9 1300 м
[Sc]
+10.0 +7.1 82 +9 +9 1013.9 1013.2 +16.2 0.4
21 19.01 СВ 2 10 км слаб. дождь 9/9 1300 м
[Sc]
+8.8 +7.3 90 +7 +7 1014.5 1013.7
06 20.01 СВ 6 12 км {дождь} 10/10 1200 м
[Sc]
+9.0 +5.0 76 +5 +5 1013.0 1012.3 +7.8 1
09 20.01 СВ 2 20 км ясно +12.0 +6.5 69 +11 +15 1014.0 1013.3
12 20.01 СВ 4 20 км 3/3 1380 м
[Cu med, cong]
+14.6 +6.0 56 +14 +16 1014.2 1013.5
15 20.01 С 4 20 км 6/6 1380 м
[Sc]
+14.6 +6.5 58 +14 +14 1013.1 1012.4
18 20.01 штиль 0 10 км 4/4 1200 м
[Sc]
+9.8 +6.4 79 +9 +9 1013.8 1013.1 +16.0
21 20.01 штиль 0 10 км 4/4 1380 м
[Sc]
+8.0 +5.6 85 +7 +7 1014.6 1013.8
06 21.01 штиль 0 15 км ясно +5.2 +2.7 84 +4 +4 1013.8 1013.1 +4.0
09 21.01 штиль 0 20 км ясно +8.4 +4.8 78 +8 +13 1014.8 1014.0
12 21.01 ЮВ 4 20 км 4/4 1380 м
[Cu med, cong]
+14.0 +5.1 55 +13 +15 1014.0 1013.3
15 21.01 ЮЗ 6 20 км 6/6 1380 м
[Sc]
+15.6 +5.2 50 +14 +14 1012.8 1012.0
18 21.01 ЮЗ 2 15 км в посл. час дождь 10/10 1200 м
[Sc]
+12.2 +6.2 67 +11 +11 1013.3 1012.6 +15.8 0.4
21 21.01 ЮВ 4 12 км {дождь} 10/10 1200 м
[Sc]
+10.6 +7.5 81 +8 +8 1012.9 1012.2
06 22.01 ЮВ 8 15 км в посл. час дождь 10/10 1200 м
[Sc]
+12.2 +6.5 68 +9 +9 1008.9 1008.2 +9.6 2
09 22.01 ЮВ 10 20 км в посл. час дождь 10/10 1200 м
[Sc]
+13.4 +5.9 60 +10 +10 1008.2 1007.5

 

Местоположение метеостанции Влёра (Албания): широта 40.47 долгота 19.48 высота над уровнем моря 1 м.

В архиве по умолчанию представлена погода во Влёре за последнюю неделю. Архивные данные за месяц целиком и за предыдущие месяцы, начиная с января 2011 года, Вы можете получить, выбрав интересующий диапазон дат из раскрывающегося списка и нажав кнопку "Ввод!".


*Определитесь, кто Вы:
робот инопланетянин человек

Внимание! Время в таблицах - всемирное. Для получения местного времени необходимо прибавить поправку, которая равна 1 ч.

Смотрите также архив погоды в соседних городах и на ближайших метеорологических станциях:

Погода на Сазани (Албания) (17 км)
Погода в Кучове (Албания) (51 км)
Погода в Гирокастре (Албания) (72 км)
Погода в Саранде (Албания) (79 км)
Погода в Дурресе (Албания) (92 км)
Погода в Отранто (Италия) (94 км)
Погода в Эльбасане (Албания) (96 км)
Погода в Тиране (Албания) (99 км)
Погода в Тиране Лапрака (Албания) (102 км)
Погода в Керкире (Греция) (102 км)

Пояснения к столбцам:

Ветер - указаны скорость ветра в м/с - средняя за 10 мин, порывы в срок и между сроками (в фигурных скобках) и направление, откуда дует ветер: С - северный, СВ - северо-восточный, В - восточный, ЮВ - юго-восточный, Ю - южный, ЮЗ - юго-западный, З - западный, СЗ - северо-западный.
Видимость - горизонтальная дальность видимости в метрах или километрах. При видимости от 1 до 10 км при отсутствии осадков обычно наблюдается дымка, при ухудшении видимости до 1 км и менее - туман. В сухую погоду видимость может ухудшаться дымом, пылью или мглою.
Явления - указаны атмосферные явления, наблюдавшиеся в срок или в последний час перед сроком; фигурными скобками обозначены явления, наблюдавшиеся между сроками (за 1-3 часа до срока); квадратными скобками обозначены град или гололедные отложения с указанием их диаметра в мм.
Облачность - указаны через наклонную черту общая и нижняя облачность в баллах и высота нижней границы облаков в метрах; квадратными скобками обозначены формы облаков: Ci - перистые, Cs - перисто-слоистые, Cc - перисто-кучевые, Ac - высококучевые, As - высокослоистые, Sc - слоисто-кучевые, Ns - слоисто-дождевые, Cu - кучевые, Cb - кучево-дождевые. Подробнее классификацию облаков см. в Атласе облаков (PDF).
T - Температура воздуха - температура, измеренная на высоте 2 м над землей.
Td - Температура точки росы - температура, при понижении до которой содержащийся в воздухе водяной пар достигнет насыщения.
f - Относительная влажность воздуха - влажноcть воздуха, измеренная на высоте 2 м над землей.
Te - Эффективная температура - температура, которую ощущает одетый по сезону человек в тени. Характеристика душности погоды. При расчете учитывается влияние влажности воздуха и скорости ветра на теплоощущения человека.
Tes - Эффективная температура на солнце - температура, которую ощущает человек, с поправкой на солнечный нагрев. Характеристика знойности погоды. Зависит от высоты солнца над горизонтом, облачности и скорости ветра. Ночью, в пасмурную погоду, а также при ветре 12 м/с и более поправка равна нулю.
P - Атмосферное давление - приведенное к уровню моря атмосферное давление.
Po - Атмосферное давление - измеренное на уровне метеостанции атмосферное давление.
Tmin - Минимальная температура - минимум температуры воздуха на высоте 2 м над землей.
Tmax - Максимальная температура - максимум температуры воздуха на высоте 2 м над землей.
R - Количество осадков - Количество выпавших осадков за период времени, мм. При наведении курсора мыши на число - период времени, за который выпало указанное количество осадков.
R24 - Количество осадков - Количество выпавших осадков за 24 часа, мм.
S - Снежный покров - Высота снежного покрова, см. При наведении курсора мыши на число - состояние снежного покрова и степень покрытия местности в баллах.